Regional Weather Roundup
Issued by NWS

Home | Current Version | Previous Version | Text Only | Print | Product List | Glossary Off
Versions: 1 2 3 4 5 6 7 8 9 10 11 12 13 14 15 16 17 18 19 20 21 22 23 24 25 26 27 28 29 30 31 32 33 34 35 36 37 38 39 40 41 42 43 44 45 46 47 48 49 50

000
ASUS43 KLMK 201002
RWRKY
KENTUCKY REGIONAL WEATHER ROUNDUP
NATIONAL WEATHER SERVICE LOUISVILLE KY
600 AM EDT SAT SEP 20 2014

NOTE "FAIR" INDICATES FEW OR NO CLOUDS BELOW 12,000 FEET
WITH NO SIGNIFICANT WEATHER AND/OR OBSTRUCTIONS TO VISIBILITY.

KYZ001>023-026-027-061>063-070>075-201100-
WESTERN AND SOUTH CENTRAL KENTUCKY

CITY           SKY/WX    TMP DP  RH WIND       PRES   REMARKS
PADUCAH        CLEAR     63  58  83 CALM      30.03R
HENDERSON      CLEAR     55  52  88 CALM      30.04R
OWENSBORO      CLEAR     61  59  93 CALM      30.05R
HOPKINSVILLE   PTCLDY    68  68 100 S7        30.06R
BOWLING GREEN  CLEAR     68  63  84 S6        30.08R
GLASGOW        CLEAR     67  62  84 S6        30.09R
$$

KYZ024-025-028>034-038-045-046-053-201100-
NORTH CENTRAL KENTUCKY

CITY           SKY/WX    TMP DP  RH WIND       PRES   REMARKS
LOUISVILLE/SDF PTCLDY    62  58  86 SE3       30.07R
LOUISVILLE/LOU CLEAR     62  58  86 CALM      30.08R
FORT KNOX      PTCLDY    64  61  90 S7        30.07R
$$

KYZ035>037-039>044-047>052-055>060-089>105-201100-
NORTHEAST KENTUCKY

CITY           SKY/WX    TMP DP  RH WIND       PRES   REMARKS
LEXINGTON      PTCLDY    66  60  81 S9        30.10R
COVINGTON      PTCLDY    60  57  89 S6        30.07R
FRANKFORT      PTCLDY    62  59  90 CALM      30.08R
$$

KYZ054-064>069-076>088-106>120-201100-
SOUTHEAST KENTUCKY

CITY           SKY/WX    TMP DP  RH WIND       PRES   REMARKS
JACKSON        CLEAR     63  55  75 CALM      30.14S
LONDON         PTCLDY    62  55  77 CALM      30.15R
SOMERSET       CLEAR     63  61  94 CALM      30.13S
MIDDLESBORO    CLEAR     59  57  91 CALM      30.17S
MONTICELLO     SUNNY     69  60  73 S7        30.13S
$$




USA.gov is the U.S. government's official web portal to all federal, state and local government web resources and services.